Regional Weather Roundup
Issued by NWS

Home | Current Version | Previous Version | Graphics & Text | Print | Product List | Glossary On
Versions: 1 2 3 4 5 6 7 8 9 10 11 12 13 14 15 16 17 18 19 20 21 22 23 24 25 26 27 28 29 30 31 32 33 34 35 36 37 38 39 40 41 42 43 44 45 46 47 48 49 50
891
ASUS43 KLMK 280402
RWRKY
KENTUCKY REGIONAL WEATHER ROUNDUP
NATIONAL WEATHER SERVICE LOUISVILLE KY
1200 AM EDT WED SEP 28 2016

NOTE "FAIR" INDICATES FEW OR NO CLOUDS BELOW 12,000 FEET
WITH NO SIGNIFICANT WEATHER AND/OR OBSTRUCTIONS TO VISIBILITY.

KYZ001>023-026-027-061>063-070>075-280500-
WESTERN AND SOUTH CENTRAL KENTUCKY

CITY           SKY/WX    TMP DP  RH WIND       PRES   REMARKS
PADUCAH        CLEAR     63  50  62 SW7       29.90S
HENDERSON      CLEAR     61  48  63 SW8       29.88S
OWENSBORO      NOT AVBL
HOPKINSVILLE   CLEAR     59  50  71 SW5       29.93S
BOWLING GREEN  CLEAR     61  48  62 SW6       29.94S
GLASGOW        NOT AVBL
$$

KYZ024-025-028>034-038-045-046-053-280500-
NORTH CENTRAL KENTUCKY

CITY           SKY/WX    TMP DP  RH WIND       PRES   REMARKS
LOUISVILLE/SDF CLEAR     66  46  48 S3        29.89S
LOUISVILLE/LOU CLEAR     62  49  62 S3        29.90S
FORT KNOX      CLEAR     57  48  73 S3        29.89S
$$

KYZ035>037-039>044-047>052-055>060-089>105-280500-
NORTHEAST KENTUCKY

CITY           SKY/WX    TMP DP  RH WIND       PRES   REMARKS
LEXINGTON      CLEAR     58  44  60 S7        29.93S
COVINGTON      CLEAR     57  48  72 S7        29.88S
FRANKFORT      CLEAR     56  45  66 S5        29.91R
$$

KYZ054-064>069-076>088-106>120-280500-
SOUTHEAST KENTUCKY

CITY           SKY/WX    TMP DP  RH WIND       PRES   REMARKS
JACKSON        CLEAR     59  44  57 CALM      29.95S
LONDON         CLEAR     51  46  83 CALM      29.96S
SOMERSET       CLEAR     50  48  93 CALM      29.97R
MIDDLESBORO    CLEAR     50  49  95 CALM      29.99R
MONTICELLO     CLEAR     49  47  93 W9        29.98S
$$





USA.gov is the U.S. government's official web portal to all federal, state and local government web resources and services.